Skip Page Navigation
NASA JPL Caltech
NASA Logo - Jet Propulsion Laboratory + View the NASA Portal
+ Near-Earth Object (NEO) Program
Search JPL
JPL Home Earth Solar System Stars & Galaxies Technology
JPL Solar System Dynamics
BODIES ORBITS EPHEMERIDES TOOLS PHYSICAL DATA DISCOVERY FAQ SITE MAP
JPL Small-Body Database Browser
Search: [ help ]  
(2000 AG6)
Classification: Apollo [NEO]          SPK-ID: 3026912
Ephemeris | Orbit Diagram | Orbital Elements | Physical Parameters | Close-Approach Data ]

[ hide orbit diagram ]
Orbit Diagram
Note: Make sure you have Java enabled on your browser to see the applet. This applet is provided as a 3D orbit visualization tool. The applet was implemented using 2-body methods, and hence should not be used for determining accurate long-term trajectories (over several years or decades) or planetary encounter circumstances. For accurate long-term ephemerides, please instead use our Horizons system.
Orbit Viewer

Additional Notes: the orbits shown in the applet are color coded. The planets are white lines, and the asteroid/comet is a blue line. The bright white line indicates the portion of the orbit that is above the ecliptic plane, and the darker portion is below the ecliptic plane. Likewise for the asteroid/comet orbit, the light blue indicates the portion above the ecliptic plane, and the dark blue the portion below the ecliptic plane.

Orbit Viewer applet originally written and kindly provided by Osamu Ajiki (AstroArts), and further modified by Ron Baalke (JPL).


Orbital Elements at Epoch 2456400.5 (2013-Apr-18.0) TDB
Reference: JPL 8 (heliocentric ecliptic J2000)
 Element Value Uncertainty (1-sigma)   Units 
e .189659340515802 9.0507e-05  
a 1.01750600577472 2.9162e-05 AU
q .8245264877486184 0.00011554 AU
i 2.435024977101887 0.0032147 deg
node 283.0375881534121 0.014162 deg
peri 276.4560632424457 0.022287 deg
M 271.2774990091672 0.077479 deg
tp 2456492.892171325187
(2013-Jul-19.39217133)
0.084653 JED
period 374.8900369761231
1.03
0.016117
4.413e-05
d
yr
n .9602815879124804 4.1283e-05 deg/d
Q 1.210485523800821 3.4693e-05 AU
  Orbit Determination Parameters
   # obs. used (total)      73  
   data-arc span      7 days  
   first obs. used      2000-01-03  
   last obs. used      2000-01-10  
   planetary ephem.      DE405  
   SB-pert. ephem.      SB405-CPV-2  
   condition code      5  
   fit RMS      .66427  
   data source      ORB  
   producer      Otto Matic  
   solution date      2011-Sep-14 19:36:49  

Additional Information
 Earth MOID = .00391765 AU 
 T_jup = 5.981 
[ show covariance matrix ]

Ephemeris | Orbit Diagram | Orbital Elements | Physical Parameters | Close-Approach Data ]

Physical Parameter Table
Parameter Symbol Value Units Sigma Reference Notes
absolute magnitude H 25.337 mag .83362 8 autocmod 2.5a
rotation period rot_per 0.0766 h n/a Asteroid Lightcurve DataBase (Rev. 2013-May-01) Published Reference List:
[Whiteley, R.J.; Tholen, D.J. (2000) Bul. Amer. Astron. Soc. 32, 1003.]
[Whiteley, R.J.; Tholen, D.J.; Hergenrother, C.W. (2002) Icarus 157, 139-154.]

[ show close-approach data ]
Ephemeris | Orbit Diagram | Orbital Elements | Physical Parameters | Close-Approach Data ]
ABOUT SSD CREDITS/AWARDS PRIVACY/COPYRIGHT GLOSSARY LINKS
FirstGov 2013-May-26 05:26 UT
(server date/time)  
NASA Home Page
Site Manager:   Donald K. Yeomans
Webmaster  Alan B. Chamberlin